Lod/Ben Gurion Airport, Israel

2:33 PM IST on December 03, 2016 (GMT +0200)
Ben-Gurion International Airport

Weather History for LLBG - December, 2012

Change the Weather History Date:

Wednesday, December 26, 2012

  Actual Average Record
Temperature  
Mean Temperature 60 °F -  
Max Temperature 68 °F 64 °F 78 °F (1996)
Min Temperature 51 °F 49 °F 46 °F (2000)
Degree Days  
Heating Degree Days 6    
Growing Degree Days 10 (Base 50)    
Moisture  
Dew Point 52 °F    
Average Humidity 76    
Maximum Humidity 88    
Minimum Humidity 52    
Precipitation  
Precipitation 0.00 in - - ()
Sea Level Pressure  
Sea Level Pressure 30.22 in    
Wind  
Wind Speed 2 mph ()    
Max Wind Speed 8 mph    
Max Gust Speed -    
Visibility 5.8 miles    
Events      
Averages and records for this station are not official NWS values.
T = Trace of Precipitation, MM = Missing Value Source: Averaged Metar Reports

Daily Weather History Graph

Daily Weather History Graph

Search for Another Location

Airport or City:

Trip Planner

Search our weather history database for the weather conditions in past years. The results will help you decide how hot, cold, wet, or windy it might be!

Date:

Astronomy

Dec. 26, 2012 Rise Set
Actual Time 6:39 AM IST 4:43 PM IST
Civil Twilight 6:12 AM IST 5:10 PM IST
Nautical Twilight 5:41 AM IST 5:40 PM IST
Astronomical Twilight 5:11 AM IST 6:10 PM IST
Moon 3:18 PM IST (12/26) 4:47 AM IST (12/26)
Length of Visible Light 10h 57m
Length of Day
10h 03m
Waxing Gibbous, 96% of the Moon is Illuminated
Dec 26
Waxing Gibbous
Dec 28
Full
Jan 5
Last Quarter
Jan 11
New
Jan 19
First Quarter

Hourly Weather History & Observations

Time (IST) Temp. Dew Point Humidity Pressure Visibility Wind Dir Wind Speed Gust Speed Precip Events Conditions
12:50 AM 55.4 °F 50.0 °F 82% 30.18 in 6.2 mi Variable 1.2 mph - N/A   Scattered Clouds
1:50 AM 53.6 °F 50.0 °F 88% 30.18 in 6.2 mi NNE 1.2 mph - N/A   Scattered Clouds
2:00 AM 54 °F 50 °F 80% 30.21 in 6 mi NNE 1.2 mph - -   Partly Cloudy
2:50 AM 55.4 °F 50.0 °F 82% 30.18 in 5.6 mi Calm Calm - N/A   Scattered Clouds
3:50 AM 53.6 °F 48.2 °F 82% 30.21 in 5.6 mi South 1.2 mph - N/A   Partly Cloudy
4:50 AM 53.6 °F 50.0 °F 88% 30.21 in 5.6 mi Calm Calm - N/A   Partly Cloudy
5:50 AM 51.8 °F 48.2 °F 88% 30.21 in 5.6 mi Variable 1.2 mph - N/A   Clear
6:50 AM 53.6 °F 50.0 °F 88% 30.24 in 4.3 mi East 1.2 mph - N/A   Scattered Clouds
7:50 AM 55.4 °F 51.8 °F 88% 30.24 in 4.3 mi Calm Calm - N/A   Mostly Cloudy
8:00 AM 55 °F 51 °F 81% 30.25 in 4 mi Calm Calm - -   Mist
8:50 AM 57.2 °F 51.8 °F 82% 30.27 in 3.7 mi South 2.3 mph - N/A   Overcast
9:50 AM 60.8 °F 53.6 °F 77% 30.27 in 5.6 mi SSE 3.5 mph - N/A   Scattered Clouds
10:50 AM 64.4 °F 55.4 °F 73% 30.24 in 6.2 mi SSW 5.8 mph - N/A   Scattered Clouds
11:50 AM 66.2 °F 55.4 °F 68% 30.24 in 6.2 mi SSW 4.6 mph - N/A   Scattered Clouds
12:50 PM 66.2 °F 55.4 °F 68% 30.21 in 6.2 mi WNW 8.1 mph - N/A   Mostly Cloudy
1:50 PM 66.2 °F 53.6 °F 64% 30.21 in 6.2 mi WNW 8.1 mph - N/A   Scattered Clouds
2:00 PM 67 °F 54 °F 52% 30.22 in 6 mi WNW 8.1 mph - -   Partly Cloudy
2:50 PM 66.2 °F 53.6 °F 64% 30.21 in 6.2 mi NW 6.9 mph - N/A   Scattered Clouds
3:50 PM 66.2 °F 51.8 °F 60% 30.21 in 6.2 mi WNW 5.8 mph - N/A   Scattered Clouds
4:50 PM 64.4 °F 51.8 °F 64% 30.21 in 6.2 mi WNW 3.5 mph - N/A   Scattered Clouds
5:50 PM 62.6 °F 51.8 °F 68% 30.21 in 6.2 mi West 2.3 mph - N/A   Scattered Clouds
6:50 PM 60.8 °F 51.8 °F 72% 30.21 in 6.2 mi Variable 2.3 mph - N/A   Scattered Clouds
7:50 PM 59.0 °F 51.8 °F 77% 30.24 in 6.2 mi ESE 2.3 mph - N/A   Partly Cloudy
8:00 PM 60 °F 53 °F 69% 30.24 in 6 mi ESE 2.3 mph - -   Scattered Clouds
8:50 PM 57.2 °F 51.8 °F 82% 30.24 in 6.2 mi SSE 3.5 mph - N/A   Partly Cloudy
9:50 PM 57.2 °F 51.8 °F 82% 30.24 in 6.2 mi SE 3.5 mph - N/A   Scattered Clouds
10:50 PM 57.2 °F 51.8 °F 82% 30.24 in 6.2 mi SE 3.5 mph - N/A   Scattered Clouds
11:50 PM 57.2 °F 51.8 °F 82% 30.24 in 6.2 mi East 2.3 mph - N/A   Scattered Clouds